EXS13G EGCC-LOWW

Flight info

Callsign EXS13G
Flight time 1h 57m
Altitude 35000
Route DESIG L603 LAMSO DCT EVELI DCT RKN DCT KUMER DCT GALMA DCT TALEG L620 PIKIB DCT OMELO DCT EVIKU DCT BITSI DCT MIKOV MIKOV8W
Aircraft A321/M-SDE3FGHIRWY/LB1

Departure

Time 2026-05-04 10:54
Airport Manchester Airport (EGCC)

Arrival

Time 2026-05-04 12:51
Airport Vienna International Airport (LOWW)
Time Latitude Longitude Altitude Speed Heading
2026-05-04 10:13 53.36854 -2.28609 255 ft 0 kts 315°
2026-05-04 10:39 53.36847 -2.28597 255 ft 4 kts 315°
2026-05-04 10:39 53.36828 -2.28565 255 ft 4 kts 315°
2026-05-04 10:39 53.36816 -2.28546 255 ft 4 kts 311°
2026-05-04 10:40 53.36805 -2.28511 255 ft 4 kts 264°
2026-05-04 10:40 53.36811 -2.28483 255 ft 1 kts 225°
2026-05-04 10:40 53.36798 -2.28505 255 ft 4 kts 224°
2026-05-04 10:40 53.36779 -2.28537 255 ft 4 kts 224°
2026-05-04 10:41 53.36760 -2.28568 255 ft 4 kts 224°
2026-05-04 10:41 53.36753 -2.28580 255 ft 0 kts 224°
2026-05-04 10:44 53.36722 -2.28629 255 ft 3 kts 224°
2026-05-04 10:45 53.36697 -2.28671 255 ft 9 kts 224°
2026-05-04 10:45 53.36653 -2.28743 255 ft 8 kts 224°
2026-05-04 10:45 53.36610 -2.28789 255 ft 8 kts 181°
2026-05-04 10:45 53.36567 -2.28736 255 ft 9 kts 134°
2026-05-04 10:46 53.36525 -2.28666 255 ft 8 kts 135°
2026-05-04 10:46 53.36483 -2.28595 255 ft 9 kts 135°
2026-05-04 10:46 53.36437 -2.28518 255 ft 9 kts 136°
2026-05-04 10:46 53.36381 -2.28479 255 ft 8 kts 172°
2026-05-04 10:47 53.36332 -2.28447 255 ft 8 kts 141°
2026-05-04 10:47 53.36295 -2.28389 255 ft 7 kts 135°
2026-05-04 10:47 53.36252 -2.28314 255 ft 12 kts 135°
2026-05-04 10:47 53.36193 -2.28215 255 ft 14 kts 134°
2026-05-04 10:49 53.35697 -2.27883 244 ft 12 kts 186°
2026-05-04 10:49 53.35633 -2.27899 241 ft 10 kts 203°
2026-05-04 10:50 53.35577 -2.27998 237 ft 13 kts 232°
2026-05-04 10:51 53.35048 -2.28680 229 ft 13 kts 229°
2026-05-04 10:52 53.34984 -2.28795 226 ft 14 kts 226°
2026-05-04 10:52 53.34920 -2.28907 225 ft 14 kts 225°
2026-05-04 10:52 53.34846 -2.29033 219 ft 11 kts 221°
2026-05-04 10:54 53.35819 -2.26573 295 ft 166 kts 51°
2026-05-04 10:54 53.36544 -2.25053 900 ft 165 kts 51°
2026-05-04 10:56 53.42407 -2.12646 3798 ft 256 kts 51°
2026-05-04 10:56 53.43517 -2.10284 4594 ft 260 kts 51°
2026-05-04 10:56 53.44645 -2.07889 5375 ft 263 kts 51°
2026-05-04 10:57 53.45786 -2.05468 6154 ft 267 kts 51°
2026-05-04 10:57 53.46932 -2.03024 6831 ft 273 kts 51°
2026-05-04 10:57 53.48112 -2.00503 7533 ft 277 kts 51°
2026-05-04 10:57 53.49317 -1.97938 8239 ft 282 kts 51°
2026-05-04 10:58 53.50548 -1.95341 8925 ft 286 kts 51°
2026-05-04 10:58 53.51636 -1.92518 9584 ft 291 kts 66°
2026-05-04 10:58 53.52180 -1.89219 10191 ft 296 kts 84°
2026-05-04 10:58 53.52094 -1.85759 10797 ft 299 kts 103°
2026-05-04 10:59 53.51531 -1.82306 11047 ft 317 kts 107°
2026-05-04 10:59 53.50885 -1.78638 11170 ft 337 kts 107°
2026-05-04 10:59 53.50602 -1.77047 11229 ft 346 kts 107°
2026-05-04 10:59 53.49882 -1.73001 11360 ft 365 kts 107°
2026-05-04 11:00 53.49142 -1.68866 11755 ft 374 kts 107°
2026-05-04 11:01 53.44264 -1.41544 15264 ft 395 kts 107°
2026-05-04 11:02 53.43455 -1.37053 15823 ft 398 kts 107°
2026-05-04 11:02 53.42646 -1.32604 16349 ft 400 kts 108°
2026-05-04 11:05 53.30706 -0.67743 22486 ft 431 kts 107°
2026-05-04 11:06 53.29807 -0.62953 22895 ft 433 kts 108°
2026-05-04 11:06 53.28905 -0.58141 23299 ft 435 kts 107°
2026-05-04 11:06 53.27997 -0.53307 23685 ft 437 kts 107°
2026-05-04 11:06 53.27080 -0.48456 24024 ft 438 kts 107°
2026-05-04 11:08 53.20534 -0.14150 26276 ft 449 kts 108°
2026-05-04 11:10 53.13693 0.21013 28239 ft 461 kts 108°
2026-05-04 11:12 53.06776 0.55959 30650 ft 455 kts 109°
2026-05-04 11:12 53.05763 0.61030 30853 ft 457 kts 109°
2026-05-04 11:12 53.04770 0.65985 31100 ft 458 kts 109°
2026-05-04 11:12 53.03749 0.71068 31377 ft 457 kts 109°
2026-05-04 11:13 53.02758 0.76012 31660 ft 457 kts 109°
2026-05-04 11:13 53.01750 0.81020 31936 ft 457 kts 109°
2026-05-04 11:13 53.00737 0.86018 32240 ft 456 kts 109°
2026-05-04 11:13 52.99718 0.91009 32454 ft 458 kts 109°
2026-05-04 11:14 52.98692 0.96024 32653 ft 460 kts 110°
2026-05-04 11:14 52.97761 1.01099 32916 ft 460 kts 103°
2026-05-04 11:14 52.97142 1.06312 33160 ft 461 kts 102°
2026-05-04 11:16 52.92906 1.42791 34833 ft 459 kts 102°
2026-05-04 11:16 52.92293 1.47981 34999 ft 459 kts 102°
2026-05-04 11:16 52.91678 1.53173 35044 ft 459 kts 102°
2026-05-04 11:17 52.90433 1.63575 35048 ft 461 kts 103°
2026-05-04 11:19 52.85363 2.05101 35034 ft 461 kts 103°
2026-05-04 11:19 52.84061 2.15574 35025 ft 462 kts 103°
2026-05-04 11:20 52.82781 2.25931 35026 ft 463 kts 103°
2026-05-04 11:20 52.81472 2.36361 35030 ft 464 kts 104°
2026-05-04 11:22 52.76089 2.78102 35038 ft 465 kts 104°
2026-05-04 11:23 52.74726 2.88550 35026 ft 466 kts 104°
2026-05-04 11:25 52.67569 3.23778 35018 ft 464 kts 114°
2026-05-04 11:25 52.65221 3.33683 35023 ft 464 kts 114°
2026-05-04 11:27 52.58337 3.80480 35010 ft 471 kts 106°
2026-05-04 11:28 52.56878 3.90981 35014 ft 472 kts 106°
2026-05-04 11:28 52.55414 4.01499 35001 ft 472 kts 106°
2026-05-04 11:29 52.53937 4.12015 34996 ft 473 kts 106°
2026-05-04 11:29 52.52441 4.22569 35014 ft 475 kts 107°
2026-05-04 11:33 52.41714 4.96285 34990 ft 475 kts 108°
2026-05-04 11:33 52.40145 5.06790 34979 ft 476 kts 108°
2026-05-04 11:34 52.38572 5.17244 34981 ft 476 kts 108°
2026-05-04 11:34 52.36984 5.27770 34993 ft 477 kts 108°
2026-05-04 11:35 52.35375 5.38290 34995 ft 477 kts 109°
2026-05-04 11:35 52.33754 5.48800 34986 ft 477 kts 109°
2026-05-04 11:36 52.32123 5.59318 34997 ft 477 kts 109°
2026-05-04 11:36 52.30494 5.69842 34994 ft 478 kts 109°
2026-05-04 11:37 52.28846 5.80363 34995 ft 478 kts 109°
2026-05-04 11:37 52.27187 5.90864 34999 ft 478 kts 109°
2026-05-04 11:38 52.25523 6.01358 34987 ft 478 kts 109°
2026-05-04 11:38 52.23845 6.11854 34987 ft 478 kts 109°
2026-05-04 11:39 52.22165 6.22338 34989 ft 478 kts 109°
2026-05-04 11:41 52.16210 6.58909 34982 ft 478 kts 110°
2026-05-04 11:41 52.14491 6.69355 34988 ft 478 kts 110°
2026-05-04 11:42 52.12768 6.79801 34987 ft 478 kts 109°
2026-05-04 11:42 52.11286 6.90372 34969 ft 480 kts 106°
2026-05-04 11:43 52.09940 7.01003 34981 ft 480 kts 106°
2026-05-04 11:43 52.08531 7.11602 34984 ft 479 kts 107°
2026-05-04 11:44 52.07044 7.22160 34986 ft 479 kts 108°
2026-05-04 11:44 52.05539 7.32694 34981 ft 479 kts 108°
2026-05-04 11:45 52.04051 7.43230 34967 ft 478 kts 108°
2026-05-04 11:45 52.02560 7.53748 34973 ft 478 kts 108°
2026-05-04 11:46 52.01051 7.64262 34976 ft 478 kts 108°
2026-05-04 11:46 51.99791 7.73000 34980 ft 478 kts 108°
2026-05-04 11:47 51.98271 7.83489 34984 ft 478 kts 108°
2026-05-04 11:47 51.96734 7.93997 34969 ft 479 kts 108°
2026-05-04 11:48 51.95187 8.04499 34973 ft 479 kts 108°
2026-05-04 11:48 51.93635 8.14998 34975 ft 479 kts 108°
2026-05-04 11:49 51.92062 8.25486 34978 ft 479 kts 108°
2026-05-04 11:49 51.90486 8.35987 34971 ft 480 kts 108°
2026-05-04 11:50 51.88905 8.46480 34977 ft 480 kts 108°
2026-05-04 11:50 51.87315 8.56965 34978 ft 480 kts 108°
2026-05-04 11:51 51.85713 8.67449 34985 ft 480 kts 109°
2026-05-04 11:51 51.84090 8.77936 34985 ft 480 kts 109°
2026-05-04 11:52 51.82467 8.88408 34973 ft 480 kts 109°
2026-05-04 11:52 51.80832 8.98873 34980 ft 480 kts 109°
2026-05-04 11:53 51.79193 9.09339 34978 ft 480 kts 109°
2026-05-04 11:53 51.77559 9.19724 34979 ft 480 kts 109°
2026-05-04 11:55 51.70848 9.61429 34988 ft 480 kts 109°
2026-05-04 11:56 51.69155 9.71828 34968 ft 480 kts 109°
2026-05-04 11:56 51.67455 9.82231 34981 ft 480 kts 109°
2026-05-04 11:57 51.65736 9.92625 34987 ft 480 kts 109°
2026-05-04 11:57 51.64013 10.03011 34988 ft 480 kts 109°
2026-05-04 11:58 51.62279 10.13385 34992 ft 480 kts 109°
2026-05-04 11:58 51.60538 10.23744 34979 ft 480 kts 109°
2026-05-04 11:59 51.58789 10.34094 34969 ft 480 kts 109°
2026-05-04 11:59 51.57025 10.44440 34989 ft 479 kts 109°
2026-05-04 12:00 51.55272 10.54678 34996 ft 478 kts 109°
2026-05-04 12:00 51.53498 10.64963 34986 ft 478 kts 109°
2026-05-04 12:01 51.51758 10.75249 34999 ft 477 kts 109°
2026-05-04 12:02 51.45686 11.11207 34987 ft 477 kts 109°
2026-05-04 12:03 51.43921 11.21446 34991 ft 476 kts 109°
2026-05-04 12:03 51.42149 11.31677 34997 ft 476 kts 109°
2026-05-04 12:04 51.40375 11.41894 35002 ft 476 kts 109°
2026-05-04 12:04 51.38115 11.51782 35002 ft 472 kts 116°
2026-05-04 12:05 51.35619 11.61502 34992 ft 472 kts 116°
2026-05-04 12:05 51.33128 11.71228 34997 ft 473 kts 116°
2026-05-04 12:06 51.30626 11.80939 35002 ft 472 kts 116°
2026-05-04 12:06 51.28107 11.90631 35008 ft 472 kts 116°
2026-05-04 12:07 51.25578 12.00314 34992 ft 472 kts 116°
2026-05-04 12:07 51.23054 12.09981 34995 ft 472 kts 116°
2026-05-04 12:08 51.20537 12.19584 34996 ft 472 kts 116°
2026-05-04 12:08 51.17997 12.29245 34995 ft 472 kts 116°
2026-05-04 12:09 51.15448 12.38884 35014 ft 472 kts 117°
2026-05-04 12:09 51.12879 12.48509 34990 ft 472 kts 116°
2026-05-04 12:10 51.10310 12.58113 34994 ft 471 kts 116°
2026-05-04 12:10 51.08188 12.67989 34999 ft 474 kts 109°
2026-05-04 12:11 51.06381 12.78065 34998 ft 474 kts 109°
2026-05-04 12:11 51.04562 12.88126 34993 ft 474 kts 109°
2026-05-04 12:12 51.02730 12.98185 34984 ft 473 kts 109°
2026-05-04 12:12 51.00885 13.08213 34981 ft 473 kts 109°
2026-05-04 12:14 50.93542 13.48297 34990 ft 472 kts 108°
2026-05-04 12:15 50.91734 13.58294 34988 ft 472 kts 109°
2026-05-04 12:15 50.89853 13.68263 34989 ft 472 kts 109°
2026-05-04 12:16 50.87954 13.78205 34989 ft 472 kts 109°
2026-05-04 12:16 50.86059 13.88145 34988 ft 472 kts 109°
2026-05-04 12:17 50.83729 13.97762 34979 ft 466 kts 123°
2026-05-04 12:17 50.79865 14.05749 34974 ft 457 kts 140°
2026-05-04 12:18 50.75187 14.12514 34974 ft 456 kts 141°
2026-05-04 12:18 50.70496 14.19269 34952 ft 457 kts 141°
2026-05-04 12:19 50.65803 14.26018 34960 ft 457 kts 141°
2026-05-04 12:19 50.61098 14.32754 34968 ft 457 kts 141°
2026-05-04 12:20 50.56391 14.39478 34976 ft 457 kts 141°
2026-05-04 12:20 50.51677 14.46185 34984 ft 457 kts 141°
2026-05-04 12:21 50.46959 14.52882 34983 ft 457 kts 141°
2026-05-04 12:21 50.42299 14.59684 34984 ft 458 kts 139°
2026-05-04 12:22 50.37748 14.66683 34979 ft 459 kts 138°
2026-05-04 12:22 50.33196 14.73694 34983 ft 459 kts 139°
2026-05-04 12:23 50.28610 14.80638 34988 ft 459 kts 139°
2026-05-04 12:23 50.24002 14.87543 34981 ft 459 kts 139°
2026-05-04 12:24 50.19419 14.94395 34982 ft 460 kts 139°
2026-05-04 12:24 50.14769 15.01352 34992 ft 461 kts 139°
2026-05-04 12:25 50.10166 15.08223 34998 ft 461 kts 139°
2026-05-04 12:25 50.05531 15.15121 35005 ft 461 kts 139°
2026-05-04 12:26 50.00892 15.22005 35000 ft 461 kts 139°
2026-05-04 12:26 49.96245 15.28881 34994 ft 461 kts 139°
2026-05-04 12:27 49.91589 15.35741 34995 ft 461 kts 139°
2026-05-04 12:27 49.86924 15.42589 35000 ft 462 kts 139°
2026-05-04 12:28 49.82262 15.49421 34987 ft 461 kts 139°
2026-05-04 12:28 49.77605 15.56251 34988 ft 462 kts 139°
2026-05-04 12:29 49.72932 15.63068 34996 ft 462 kts 139°
2026-05-04 12:29 49.68246 15.69861 35004 ft 462 kts 139°
2026-05-04 12:30 49.63565 15.76637 35001 ft 462 kts 139°
2026-05-04 12:30 49.58891 15.83426 35008 ft 462 kts 139°
2026-05-04 12:31 49.54207 15.90202 34996 ft 461 kts 139°
2026-05-04 12:31 49.49526 15.96934 34812 ft 461 kts 139°
2026-05-04 12:32 49.47182 16.00298 34561 ft 460 kts 139°
2026-05-04 12:32 49.42443 16.07080 32774 ft 471 kts 139°
2026-05-04 12:32 49.40034 16.10517 31848 ft 475 kts 139°
2026-05-04 12:33 49.37639 16.13930 30970 ft 478 kts 139°
2026-05-04 12:33 49.35188 16.17418 29919 ft 484 kts 139°
2026-05-04 12:33 49.32702 16.20921 28805 ft 487 kts 141°
2026-05-04 12:33 49.29994 16.24013 27817 ft 484 kts 149°
2026-05-04 12:34 49.27041 16.26448 27090 ft 478 kts 156°
2026-05-04 12:34 49.24060 16.28635 26429 ft 473 kts 156°
2026-05-04 12:34 49.21104 16.30819 25778 ft 470 kts 156°
2026-05-04 12:34 49.18169 16.32997 25114 ft 467 kts 156°
2026-05-04 12:35 49.15260 16.35158 24457 ft 463 kts 156°
2026-05-04 12:35 49.12375 16.37294 23816 ft 460 kts 156°
2026-05-04 12:35 49.09506 16.39416 23112 ft 456 kts 156°
2026-05-04 12:35 49.06668 16.41509 22497 ft 449 kts 156°
2026-05-04 12:36 49.04812 16.42876 22112 ft 445 kts 156°
2026-05-04 12:36 49.02044 16.44910 21528 ft 439 kts 156°
2026-05-04 12:36 48.99314 16.46911 20961 ft 432 kts 156°
2026-05-04 12:36 48.96624 16.48878 20423 ft 426 kts 156°
2026-05-04 12:37 48.93970 16.50819 19890 ft 420 kts 157°
2026-05-04 12:37 48.91360 16.52728 19395 ft 414 kts 157°
2026-05-04 12:37 48.88787 16.54610 18896 ft 407 kts 157°
2026-05-04 12:37 48.86252 16.56460 18449 ft 401 kts 157°
2026-05-04 12:38 48.83759 16.58276 17944 ft 394 kts 157°
2026-05-04 12:38 48.81309 16.60059 17499 ft 387 kts 157°
2026-05-04 12:38 48.78886 16.61727 17063 ft 378 kts 163°
2026-05-04 12:38 48.76318 16.62425 16631 ft 376 kts 182°
2026-05-04 12:39 48.73770 16.61736 16185 ft 372 kts 202°
2026-05-04 12:39 48.71469 16.59965 15760 ft 371 kts 210°
2026-05-04 12:39 48.69233 16.58019 15335 ft 369 kts 211°
2026-05-04 12:39 48.67025 16.56083 14880 ft 366 kts 211°
2026-05-04 12:40 48.64831 16.54156 14365 ft 363 kts 210°
2026-05-04 12:40 48.62657 16.52245 13862 ft 360 kts 211°
2026-05-04 12:40 48.60499 16.50346 13315 ft 358 kts 211°
2026-05-04 12:40 48.58357 16.48464 12796 ft 355 kts 210°
2026-05-04 12:41 48.56229 16.46591 12241 ft 353 kts 211°
2026-05-04 12:41 48.54112 16.44731 11741 ft 350 kts 211°
2026-05-04 12:41 48.52040 16.42912 11218 ft 348 kts 211°
2026-05-04 12:41 48.49954 16.41083 10703 ft 346 kts 210°
2026-05-04 12:42 48.47883 16.39266 10314 ft 340 kts 210°
2026-05-04 12:42 48.45926 16.37549 10165 ft 311 kts 211°
2026-05-04 12:42 48.44141 16.35990 10007 ft 284 kts 210°
2026-05-04 12:42 48.42473 16.34530 9461 ft 273 kts 210°
2026-05-04 12:43 48.40840 16.33098 8785 ft 272 kts 210°
2026-05-04 12:43 48.39210 16.31671 8328 ft 271 kts 210°
2026-05-04 12:43 48.37597 16.30248 7929 ft 267 kts 210°
2026-05-04 12:43 48.36003 16.28841 7479 ft 266 kts 210°
2026-05-04 12:44 48.34421 16.27429 7103 ft 262 kts 210°
2026-05-04 12:44 48.32871 16.26019 6769 ft 256 kts 210°
2026-05-04 12:44 48.31402 16.24680 6605 ft 239 kts 210°
2026-05-04 12:44 48.30016 16.23411 6294 ft 231 kts 211°
2026-05-04 12:45 48.28656 16.22172 5934 ft 227 kts 211°
2026-05-04 12:45 48.27281 16.20969 5497 ft 230 kts 204°
2026-05-04 12:45 48.25739 16.20493 5134 ft 226 kts 180°
2026-05-04 12:45 48.24203 16.20885 4975 ft 226 kts 160°
2026-05-04 12:46 48.22833 16.22058 4978 ft 230 kts 142°
2026-05-04 12:46 48.21793 16.23901 4853 ft 234 kts 120°
2026-05-04 12:46 48.21080 16.26064 4570 ft 230 kts 117°
2026-05-04 12:46 48.20418 16.28155 4274 ft 218 kts 117°
2026-05-04 12:47 48.19791 16.30116 4015 ft 199 kts 118°
2026-05-04 12:47 48.19216 16.31905 3769 ft 182 kts 118°
2026-05-04 12:47 48.18692 16.33531 3520 ft 165 kts 121°
2026-05-04 12:47 48.18207 16.35033 3298 ft 159 kts 117°
2026-05-04 12:48 48.17725 16.36522 3083 ft 159 kts 118°
2026-05-04 12:48 48.17245 16.38006 2871 ft 158 kts 118°
2026-05-04 12:48 48.16766 16.39491 2661 ft 158 kts 120°
2026-05-04 12:48 48.16297 16.40942 2447 ft 153 kts 118°
2026-05-04 12:49 48.15835 16.42370 2239 ft 150 kts 118°
2026-05-04 12:49 48.15389 16.43749 2026 ft 144 kts 122°
2026-05-04 12:49 48.14953 16.45096 1831 ft 143 kts 123°
2026-05-04 12:49 48.14516 16.46442 1642 ft 143 kts 121°
2026-05-04 12:50 48.14085 16.47773 1451 ft 141 kts 122°
2026-05-04 12:50 48.13658 16.49090 1268 ft 140 kts 119°
2026-05-04 12:50 48.13253 16.50406 1079 ft 138 kts 120°
2026-05-04 12:50 48.12826 16.51682 910 ft 139 kts 118°
2026-05-04 12:51 48.12400 16.52990 697 ft 140 kts 121°
2026-05-04 12:51 48.11979 16.54261 603 ft 125 kts 115°
2026-05-04 12:51 48.11681 16.55182 612 ft 71 kts 116°
2026-05-04 12:51 48.11527 16.55679 626 ft 39 kts 108°
2026-05-04 12:52 48.11504 16.55989 617 ft 13 kts 87°
2026-05-04 12:52 48.11513 16.56099 621 ft 10 kts 67°
2026-05-04 12:52 48.11565 16.56156 623 ft 10 kts 27°
2026-05-04 12:52 48.11628 16.56208 617 ft 6 kts 42°
2026-05-04 12:53 48.11670 16.56251 618 ft 9 kts 27°
2026-05-04 12:53 48.11736 16.56300 616 ft 11 kts 29°
2026-05-04 12:53 48.11747 16.56406 604 ft 12 kts 115°
2026-05-04 12:53 48.11712 16.56511 619 ft 11 kts 116°
2026-05-04 12:54 48.11680 16.56608 618 ft 10 kts 116°
2026-05-04 12:54 48.11657 16.56682 617 ft 6 kts 115°
2026-05-04 12:54 48.11635 16.56750 607 ft 6 kts 116°
2026-05-04 12:54 48.11622 16.56790 619 ft 3 kts 116°
2026-05-04 12:55 48.11615 16.56811 619 ft 1 kts 116°
2026-05-04 12:55 48.11613 16.56838 615 ft 6 kts 78°
2026-05-04 12:55 48.11647 16.56879 620 ft 3 kts 28°
2026-05-04 12:55 48.11663 16.56891 609 ft 1 kts 27°
2026-05-04 12:56 48.11667 16.56895 611 ft 0 kts 27°